Weather reports worldwide

Advertisment
Kirkenes, Norway (1089): temperature & dewpoint: 05.12.2019 09:00:00 - 11.12.2019 09:00:00 (CET)Kirkenes, Norway (1089): wind speed & gusts: 05.12.2019 09:00:00 - 11.12.2019 09:00:00 (CET)Kirkenes, Norway (1089): wind direction: 05.12.2019 09:00:00 - 11.12.2019 09:00:00 (CET)Kirkenes, Norway (1089): reduced air pressure: 05.12.2019 09:00:00 - 11.12.2019 09:00:00 (CET)Kirkenes, Norway (1089): visibility: 05.12.2019 09:00:00 - 11.12.2019 09:00:00 (CET)
Date & Time tt [°C] td [°C] ff [km/h] ff [kn] fx [km/h] fx [kn] dd ppp [hPa] vv [km]
11.12.2019 09:00:00 -15,9 -17,5 22 12 26 14 SSE 1004,1 10
11.12.2019 08:00:00 -16,3 -17,8 18 10 21 12 S 1004,6 10
11.12.2019 07:00:00 -16,8 -18,3 16 9 - - S 1005,2 10
11.12.2019 06:00:00 -15,9 -17,4 11 6 16 9 SSE 1005,8 10
11.12.2019 05:00:00 -16,2 -17,7 16 9 19 11 S 1006,0 10
11.12.2019 04:00:00 -15,8 -17,2 13 7 23 12 SSE 1005,7 10
11.12.2019 03:00:00 -15,2 -17,1 18 10 34 18 S 1005,6 10
11.12.2019 02:00:00 -12,4 -14,8 15 8 27 15 SSW 1005,3 10
11.12.2019 01:00:00 -10,9 -13,8 15 8 - - SSW 1004,8 10
11.12.2019 00:00:00 -11,2 -13,8 16 9 35 19 WSW 1004,3 10
10.12.2019 23:00:00 -10,1 -13,0 29 16 39 21 W 1003,3 10
10.12.2019 22:00:00 -9,8 -12,4 34 18 44 24 W 1002,6 10
10.12.2019 21:00:00 -8,1 -11,2 31 17 46 25 W 1001,9 10
10.12.2019 20:00:00 -9,1 -11,9 29 16 38 21 W 1001,6 10
10.12.2019 19:00:00 -9,7 -12,2 29 16 - - W 1000,8 10
10.12.2019 18:00:00 -8,0 -11,7 24 13 35 19 W 1000,6 10
10.12.2019 17:00:00 -7,2 -11,1 29 16 42 23 WNW 999,5 10
10.12.2019 16:00:00 -5,4 -10,0 22 12 35 19 W 999,1 10
10.12.2019 15:00:00 -4,5 -9,3 16 9 41 22 WNW 997,8 10
10.12.2019 14:00:00 -3,7 -8,2 34 18 60 33 NW 996,5 10
10.12.2019 13:00:00 -3,8 -7,5 35 19 - - NW 995,0 10
10.12.2019 12:00:00 -3,5 -6,3 39 21 62 34 NW 993,4 10
10.12.2019 11:00:00 -3,5 -4,6 46 25 66 35 NW 991,5 2,0
10.12.2019 10:00:00 -3,2 -4,2 48 26 74 40 NW 989,4 0,9
10.12.2019 09:00:00 -3,1 -4,6 39 21 66 36 WNW 988,5 5
10.12.2019 08:00:00 -2,7 -4,8 31 17 52 28 W 988,1 10
10.12.2019 07:00:00 -3,3 -5,2 42 23 - - W 987,1 7
10.12.2019 06:00:00 -5,6 -7,5 42 23 56 30 W 986,9 8
10.12.2019 05:00:00 -6,8 -8,9 31 17 48 26 WSW 986,8 10
10.12.2019 04:00:00 -8,3 -10,4 28 15 39 21 WSW 986,7 10
10.12.2019 03:00:00 -9,6 -11,6 16 9 32 18 SW 986,8 10
10.12.2019 02:00:00 -13,0 -14,8 9 5 29 16 S 986,5 10
10.12.2019 01:00:00 -10,2 -12,7 13 7 - - WSW 985,9 10
10.12.2019 00:00:00 -10,8 -15,0 16 9 17 9 SW 985,4 10
09.12.2019 23:00:00 -11,0 -16,1 13 7 24 13 WSW 985,0 10
09.12.2019 22:00:00 -9,6 -14,7 13 7 24 13 WSW 984,2 10
09.12.2019 21:00:00 -8,2 -12,5 9 5 26 14 WSW 983,5 10
09.12.2019 20:00:00 -8,1 -12,3 15 8 18 10 WSW 983,0 10
09.12.2019 19:00:00 -8,5 -12,2 5 3 - - WNW 982,6 10
09.12.2019 18:00:00 -7,6 -11,0 8 4 16 9 NW 982,2 10
09.12.2019 17:00:00 -7,8 -10,0 4 2 13 7 NW 981,8 10
09.12.2019 16:00:00 -7,7 -9,7 8 4 12 7 NNW 981,5 10
09.12.2019 15:00:00 -8,2 -10,2 8 4 11 6 NW 981,3 10
09.12.2019 14:00:00 -8,4 -10,2 8 4 9 5 NW 981,1 10
09.12.2019 13:00:00 -9,1 -11,1 5 3 - - NNW 981,0 10
09.12.2019 12:00:00 -9,5 -11,1 5 3 8 5 N 980,9 10
09.12.2019 11:00:00 -9,8 -11,5 8 4 11 6 N 980,6 10
09.12.2019 10:00:00 -10,7 -12,4 5 3 11 6 NNE 980,7 10
09.12.2019 09:00:00 -10,2 -11,8 8 4 13 7 NNW 980,3 10
09.12.2019 08:00:00 -10,4 -12,9 8 4 15 8 WNW 980,1 10
09.12.2019 07:00:00 -8,2 -10,9 9 5 - - NNW 979,6 10
09.12.2019 06:00:00 -8,4 -11,5 13 7 15 8 NNW 979,4 10
09.12.2019 05:00:00 -6,2 -8,9 2 1 15 8 - 979,1 10
09.12.2019 04:00:00 -7,7 -10,5 5 3 16 9 - 979,2 10
09.12.2019 03:00:00 -6,4 -9,8 5 3 14 8 W 979,0 10
09.12.2019 02:00:00 -7,6 -11,2 11 6 14 8 W 979,1 10
09.12.2019 01:00:00 -6,4 -10,6 8 4 - - WNW 978,6 10
09.12.2019 00:00:00 -4,3 -8,6 11 6 24 13 N 978,2 10
08.12.2019 23:00:00 -3,5 -7,8 18 10 30 16 N 978,1 10
08.12.2019 22:00:00 -2,2 -6,9 24 13 39 21 N 977,6 10
08.12.2019 21:00:00 -2,0 -4,5 26 14 41 22 N 977,1 6
08.12.2019 20:00:00 -7,9 -8,7 5 3 8 5 S 977,3 5
08.12.2019 19:00:00 -8,8 -9,6 11 6 - - SSE 977,2 10
08.12.2019 18:00:00 -8,7 -9,5 9 5 16 9 S 977,1 10
08.12.2019 17:00:00 -8,0 -9,0 8 4 21 11 S 976,9 10
08.12.2019 16:00:00 -8,1 -9,0 8 4 18 10 SW 976,8 10
08.12.2019 15:00:00 -7,8 -8,8 9 5 24 13 SW 977,0 10
08.12.2019 14:00:00 -7,8 -8,8 9 5 24 13 SW 977,2 10
08.12.2019 13:00:00 -7,6 -8,5 15 8 - - WSW 977,4 10
08.12.2019 12:00:00 -7,3 -8,4 16 9 22 12 WSW 977,5 10
08.12.2019 11:00:00 -5,4 -6,5 5 3 17 9 WSW 977,8 10
08.12.2019 10:00:00 -5,5 -6,5 9 5 18 10 WSW 978,1 10
08.12.2019 09:00:00 -5,6 -6,6 8 4 16 8 W 978,2 10
08.12.2019 08:00:00 -6,4 -7,1 4 2 15 8 - 978,5 10
08.12.2019 07:00:00 -5,6 -6,2 2 1 - - - 978,8 2,2
08.12.2019 06:00:00 -5,4 -6,0 0 0 3 2 N 978,9 2,9
08.12.2019 05:00:00 -5,3 -5,8 2 1 5 3 W 979,0 7
08.12.2019 04:00:00 -5,4 -5,8 4 2 5 3 W 979,3 2,0
08.12.2019 03:00:00 -5,8 -6,4 0 0 3 2 N 979,6 1,6
08.12.2019 02:00:00 -6,0 -6,6 0 0 3 2 N 980,0 2,2
08.12.2019 01:00:00 -6,6 -7,2 2 1 - - SSW 980,1 6
08.12.2019 00:00:00 -7,0 -7,7 4 2 5 3 SSE 980,5 8
07.12.2019 23:00:00 -6,6 -7,3 5 3 6 4 SSE 980,9 2,2
07.12.2019 22:00:00 -6,5 -7,2 2 1 8 4 S 981,1 2,1
07.12.2019 21:00:00 -6,8 -7,6 4 2 7 4 - 981,5 2,1
07.12.2019 20:00:00 -6,9 -7,6 4 2 10 6 - 981,8 0,8
07.12.2019 19:00:00 -7,1 -7,8 15 8 - - S 981,9 6
07.12.2019 18:00:00 -7,5 -8,3 5 3 11 6 SSE 982,1 10
07.12.2019 17:00:00 -7,4 -8,3 11 6 11 6 SSE 982,3 2,6
07.12.2019 16:00:00 -7,6 -8,5 8 4 12 7 SSE 982,9 6
07.12.2019 15:00:00 -7,6 -8,5 5 3 12 6 SSE 983,2 6
07.12.2019 14:00:00 -7,5 -8,6 11 6 15 8 SSE 983,4 10
07.12.2019 13:00:00 -7,7 -8,8 9 5 - - SSE 983,9 3,5
07.12.2019 12:00:00 -7,8 -8,8 8 4 14 8 SSE 984,3 10
07.12.2019 11:00:00 -7,9 -8,8 8 4 14 8 SSE 984,3 10
07.12.2019 10:00:00 -7,7 -8,9 9 5 13 7 SSE 984,4 10
07.12.2019 09:00:00 -6,7 -8,0 9 5 17 9 SSE 984,6 10
07.12.2019 08:00:00 -6,3 -7,9 11 6 15 8 SE 984,4 10
07.12.2019 07:00:00 -6,0 -7,6 9 5 - - S 984,3 10
07.12.2019 06:00:00 -5,7 -7,4 9 5 19 11 SE 984,2 10
07.12.2019 05:00:00 -5,5 -7,3 13 7 21 11 SE 984,1 10
07.12.2019 04:00:00 -5,3 -7,0 16 9 21 11 ESE 984,0 10
07.12.2019 03:00:00 -5,0 -6,6 13 7 25 14 SE 984,0 10
07.12.2019 02:00:00 -4,8 -6,7 16 9 21 11 ESE 983,6 10
07.12.2019 01:00:00 -4,9 -6,4 15 8 - - ESE 983,3 5
07.12.2019 00:00:00 -4,7 -5,9 18 10 23 13 ESE 982,8 3,4
06.12.2019 23:00:00 -4,6 -5,8 21 11 26 14 ESE 982,3 2,2
06.12.2019 22:00:00 -4,4 -5,6 22 12 29 16 ESE 981,8 2,3
06.12.2019 21:00:00 -4,2 -5,3 22 12 29 16 ESE 981,2 2,3
06.12.2019 20:00:00 -3,9 -4,5 9 5 19 10 E 980,5 3,7
06.12.2019 19:00:00 -6,0 -6,6 4 2 - - - 979,9 2,3
06.12.2019 18:00:00 -6,3 -7,0 4 2 5 3 NNW 979,4 10
06.12.2019 17:00:00 -6,5 -7,2 3 2 8 5 SSW 978,8 -
06.12.2019 16:00:00 -6,8 -7,6 0 0 13 7 N 978,2 6
06.12.2019 15:00:00 -6,5 -7,3 2 1 12 6 W 977,6 6
06.12.2019 14:00:00 -6,3 -7,1 5 3 12 7 WNW 977,3 2,3
06.12.2019 13:00:00 -5,3 -5,8 4 2 - - - 976,9 10
06.12.2019 12:00:00 -5,4 -5,8 5 3 13 7 - 976,5 5
06.12.2019 11:00:00 -5,3 -5,8 11 6 10 5 S 976,0 8
06.12.2019 10:00:00 -5,3 -5,8 11 6 14 8 S 975,4 9
06.12.2019 09:00:00 -5,0 -5,5 9 5 25 14 S 974,9 8
06.12.2019 08:00:00 -5,5 -6,1 21 11 27 15 SW 973,9 10
06.12.2019 07:00:00 -5,4 -6,0 11 6 - - SSW 973,6 10
06.12.2019 06:00:00 -5,3 -6,3 11 6 22 12 S 973,4 10
06.12.2019 05:00:00 -6,0 -6,6 8 4 24 13 SSW 973,0 7
06.12.2019 04:00:00 -5,5 -6,3 11 6 26 14 WSW 972,7 10
06.12.2019 03:00:00 -4,4 -5,3 11 6 24 13 SW 972,7 10
06.12.2019 02:00:00 -3,6 -4,6 5 3 22 12 - 972,8 10
06.12.2019 01:00:00 -3,7 -4,3 11 6 - - SW 972,3 10
06.12.2019 00:00:00 -3,4 -4,1 11 6 27 15 SSW 972,3 10
05.12.2019 23:00:00 -3,4 -4,1 8 4 23 13 SSW 972,4 10
05.12.2019 22:00:00 -3,0 -4,5 8 4 19 10 SW 972,2 10
05.12.2019 21:00:00 -3,1 -4,1 16 9 23 12 WSW 972,2 10
05.12.2019 20:00:00 -2,7 -2,9 11 6 19 10 SW 972,2 10
05.12.2019 19:00:00 -1,9 -2,0 11 6 - - SW 972,2 0,3
05.12.2019 18:00:00 -1,4 -1,5 11 6 24 13 WSW 972,1 10
05.12.2019 17:00:00 -1,3 -1,4 13 7 18 10 W 972,7 1,6
05.12.2019 16:00:00 -1,1 -1,3 8 4 12 7 S 972,8 0,7
05.12.2019 15:00:00 -2,0 -2,4 11 6 17 9 S 973,0 10
05.12.2019 14:00:00 -2,2 -2,4 13 7 18 10 S 973,5 4,0
05.12.2019 13:00:00 -2,2 -2,4 15 8 - - SSE 974,0 3,0
05.12.2019 12:00:00 -2,3 -2,7 16 9 22 12 S 974,6 4,0
05.12.2019 11:00:00 -2,3 -2,7 15 8 20 11 SSE 975,3 4,0
05.12.2019 10:00:00 -2,6 -3,0 15 8 17 9 S 976,2 6
05.12.2019 09:00:00 -2,5 -3,0 11 6 17 9 SE 976,8 9

tt = temperature
td = dewpoint
ff = wind speed
fx = gusts
dd = wind direction
ppp = reduced air pressure
vv = visibility

Next stations